Weather History for Naha City, Japan

Change the Weather History Date:

Wednesday, October 17, 2012

  Actual Average Record
Temperature  
Mean Temperature 78 °F -  
Max Temperature 82 °F 78 °F 87 °F (2000)
Min Temperature 73 °F 69 °F 69 °F (1996)
Cooling Degree Days 12    
Growing Degree Days 28 (Base 50)    
Moisture  
Dew Point 74 °F    
Average Humidity 87    
Maximum Humidity 94    
Minimum Humidity 74    
Precipitation  
Precipitation 0.00 in - - ()
Sea Level Pressure  
Sea Level Pressure 29.53 in    
Wind  
Wind Speed 21 mph ()    
Max Wind Speed 52 mph    
Max Gust Speed 67 mph    
Visibility 3.4 miles    
Events Rain    
Averages and records for this station are not official NWS values.
T = Trace of Precipitation, MM = Missing Value Source: Averaged Metar Reports

Daily Weather History Graph

Daily Weather History Graph

Search for Another Location

Airport:

Trip Planner

Search our weather history database for the weather conditions in past years. The results will help you decide how hot, cold, wet, or windy it might be!

Date:

Astronomy

Oct. 17, 2012 Rise Set
Actual Time 6:29 AM JST 5:59 PM JST
Civil Twilight 6:06 AM JST 6:22 PM JST
Nautical Twilight 5:39 AM JST 6:49 PM JST
Astronomical Twilight 5:12 AM JST 7:16 PM JST
Moon 8:06 AM JST (10/17) 7:19 PM JST (10/17)
Length of Visible Light 12h 16m
Length of Day
11h 30m
Waxing Crescent, 4% of the Moon is Illuminated
Oct 17
Waxing Crescent
Oct 22
First Quarter
Oct 30
Full
Nov 7
Last Quarter
Nov 14
New

Hourly Weather History & Observations

Time (JST) Temp. Heat Index Dew Point Humidity Pressure Visibility Wind Dir Wind Speed Gust Speed Precip Events Conditions
12:00 AM 80.6 °F 86.2 °F 75.2 °F 84% 29.68 in 6.2 mi ENE 17.3 mph - N/A Rain Light Rain Showers
12:30 AM 80.6 °F 86.2 °F 75.2 °F 84% 29.68 in 6.2 mi ENE 18.4 mph - N/A   Scattered Clouds
1:00 AM 80.6 °F 86.2 °F 75.2 °F 84% 29.65 in 6.2 mi ENE 18.4 mph 31.1 mph N/A   Mostly Cloudy
1:30 AM 80.6 °F 86.2 °F 75.2 °F 84% 29.65 in 6.2 mi ENE 17.3 mph 28.8 mph N/A   Mostly Cloudy
2:00 AM 80.6 °F 86.2 °F 75.2 °F 84% 29.65 in 6.2 mi ENE 16.1 mph 28.8 mph N/A   Mostly Cloudy
2:30 AM 80.6 °F 86.2 °F 75.2 °F 84% 29.65 in 6.2 mi ENE 17.3 mph - N/A   Mostly Cloudy
3:00 AM 80.6 °F 86.2 °F 75.2 °F 84% 29.65 in 6.2 mi ENE 17.3 mph 28.8 mph N/A   Mostly Cloudy
3:30 AM 80.6 °F 86.2 °F 75.2 °F 84% 29.62 in 6.2 mi ENE 20.7 mph - N/A Rain Light Rain Showers
4:00 AM 80.6 °F 85.4 °F 73.4 °F 79% 29.62 in 6.2 mi ENE 19.6 mph 31.1 mph N/A Rain Light Rain Showers
4:30 AM 80.6 °F 86.2 °F 75.2 °F 84% 29.62 in 6.2 mi ENE 19.6 mph - N/A Rain Light Rain Showers
5:00 AM 80.6 °F 86.2 °F 75.2 °F 84% 29.62 in 6.2 mi NE 19.6 mph 31.1 mph N/A   Mostly Cloudy
5:30 AM 80.6 °F 86.2 °F 75.2 °F 84% 29.59 in 6.2 mi ENE 18.4 mph 31.1 mph N/A   Mostly Cloudy
6:00 AM 80.6 °F 85.4 °F 73.4 °F 79% 29.59 in 6.2 mi ENE 20.7 mph 32.2 mph N/A   Mostly Cloudy
6:30 AM 80.6 °F 85.4 °F 73.4 °F 79% 29.59 in 6.2 mi ENE 18.4 mph 29.9 mph N/A Rain Light Rain Showers
7:00 AM 82.4 °F 89.5 °F 75.2 °F 79% 29.59 in 6.2 mi NE 18.4 mph 31.1 mph N/A   Mostly Cloudy
7:30 AM 82.4 °F 88.2 °F 73.4 °F 74% 29.59 in 6.2 mi NE 20.7 mph 38.0 mph N/A   Mostly Cloudy
8:00 AM 80.6 °F 86.2 °F 75.2 °F 84% 29.62 in 5.0 mi NE 18.4 mph 29.9 mph N/A Rain Rain Showers
8:14 AM 80.6 °F 86.2 °F 75.2 °F 84% 29.62 in 6.2 mi NE 19.6 mph 32.2 mph N/A Rain Light Rain Showers
8:30 AM 80.6 °F 85.4 °F 73.4 °F 79% 29.59 in 5.6 mi NE 18.4 mph 29.9 mph N/A Rain Light Rain Showers
9:00 AM 80.6 °F 86.2 °F 75.2 °F 84% 29.62 in 6.2 mi NE 18.4 mph - N/A   Mostly Cloudy
9:04 AM 80.6 °F 86.2 °F 75.2 °F 84% 29.62 in 6.2 mi NE 18.4 mph 32.2 mph N/A   Mostly Cloudy
9:30 AM 80.6 °F 86.2 °F 75.2 °F 84% 29.59 in 6.2 mi NE 18.4 mph 31.1 mph N/A Rain Light Rain Showers
9:36 AM 80.6 °F 85.4 °F 73.4 °F 79% 29.59 in 5.6 mi NE 18.4 mph - N/A Rain Rain Showers
9:44 AM 78.8 °F - 75.2 °F 89% 29.59 in 2.5 mi NE 19.6 mph - N/A Rain Heavy Rain Showers
9:49 AM 78.8 °F - 73.4 °F 83% 29.59 in 3.7 mi NE 18.4 mph 29.9 mph N/A Rain Rain Showers
10:00 AM 78.8 °F - 75.2 °F 89% 29.59 in 3.7 mi NE 21.9 mph 35.7 mph N/A Rain Rain Showers
10:08 AM 78.8 °F - 75.2 °F 89% 29.59 in 0.9 mi NE 19.6 mph 33.4 mph N/A Rain Heavy Rain Showers
10:16 AM 78.8 °F - 75.2 °F 89% 29.59 in 1.9 mi NE 19.6 mph - N/A Rain Rain Showers
10:22 AM 78.8 °F - 73.4 °F 83% 29.59 in 2.5 mi NE 20.7 mph 32.2 mph N/A Rain Rain Showers
10:30 AM 78.8 °F - 75.2 °F 89% 29.59 in 2.5 mi NE 20.7 mph - N/A Rain Rain Showers
10:35 AM 78.8 °F - 75.2 °F 89% 29.59 in 4.3 mi NE 19.6 mph - N/A Rain Rain Showers
10:37 AM 78.8 °F - 75.2 °F 89% 29.59 in 5.0 mi NE 18.4 mph 29.9 mph N/A Rain Light Rain Showers
11:00 AM 78.8 °F - 73.4 °F 83% 29.59 in 1.6 mi NE 18.4 mph 29.9 mph N/A Rain Rain Showers
11:07 AM 78.8 °F - 75.2 °F 89% 29.56 in 1.9 mi NE 20.7 mph 35.7 mph N/A Rain Rain Showers
11:12 AM 78.8 °F - 75.2 °F 89% 29.56 in 5.0 mi NE 20.7 mph 38.0 mph N/A Rain Light Rain Showers
11:30 AM 78.8 °F - 73.4 °F 83% 29.56 in 6.2 mi NE 21.9 mph - N/A Rain Light Rain Showers
11:31 AM 78.8 °F - 73.4 °F 83% 29.56 in 6.2 mi NE 20.7 mph 32.2 mph N/A Rain Light Rain Showers
11:38 AM 78.8 °F - 73.4 °F 83% 29.56 in 0.6 mi NE 23.0 mph 35.7 mph N/A Rain Heavy Rain Showers
11:47 AM 78.8 °F - 75.2 °F 89% 29.56 in 0.9 mi NE 21.9 mph 35.7 mph N/A Rain Heavy Rain Showers
12:00 PM 77.0 °F - 73.4 °F 89% 29.53 in 2.2 mi NE 17.3 mph - N/A Rain Rain Showers
12:02 PM 77.0 °F - 73.4 °F 89% 29.53 in 2.2 mi NE 18.4 mph 33.4 mph N/A Rain Rain Showers
12:14 PM 77.0 °F - 73.4 °F 89% 29.53 in 3.7 mi NNE 17.3 mph - N/A Rain Rain Showers
12:16 PM 77.0 °F - 73.4 °F 89% 29.53 in 3.7 mi NNE 18.4 mph 29.9 mph N/A Rain Rain Showers
12:26 PM 77.0 °F - 73.4 °F 89% 29.53 in 1.2 mi NNE 18.4 mph - N/A Rain Heavy Rain Showers
12:30 PM 77.0 °F - 73.4 °F 89% 29.50 in 0.6 mi NNE 18.4 mph - N/A Rain Heavy Rain Showers
12:34 PM 77.0 °F - 73.4 °F 89% 29.50 in 1.9 mi North 20.7 mph 36.8 mph N/A Rain Heavy Rain Showers
12:40 PM 77.0 °F - 73.4 °F 89% 29.50 in 3.7 mi NNE 23.0 mph 38.0 mph N/A Rain Rain Showers
1:00 PM 77.0 °F - 73.4 °F 89% 29.50 in 3.7 mi NE 23.0 mph - N/A Rain Rain Showers
1:07 PM 77.0 °F - 73.4 °F 89% 29.50 in 2.5 mi NE 21.9 mph - N/A Rain Rain Showers
1:09 PM 78.8 °F - 73.4 °F 83% 29.50 in 2.5 mi NE 20.7 mph 32.2 mph N/A Rain Rain Showers
1:30 PM 77.0 °F - 73.4 °F 89% 29.50 in 2.5 mi NNE 21.9 mph - N/A Rain Rain Showers
1:32 PM 77.0 °F - 73.4 °F 89% 29.47 in 2.5 mi NNE 21.9 mph 34.5 mph N/A Rain Rain Showers
2:00 PM 77.0 °F - 73.4 °F 89% 29.47 in 2.2 mi NNE 21.9 mph - N/A Rain Rain Showers
2:16 PM 77.0 °F - 75.2 °F 94% 29.47 in 1.9 mi NNE 20.7 mph - N/A Rain Heavy Rain Showers
2:20 PM 77.0 °F - 75.2 °F 94% 29.47 in 1.9 mi NNE 20.7 mph 32.2 mph N/A Rain Heavy Rain Showers
2:22 PM 77.0 °F - 75.2 °F 94% 29.47 in 1.2 mi NNE 20.7 mph 32.2 mph N/A Rain Heavy Rain Showers
2:30 PM 77.0 °F - 73.4 °F 89% 29.47 in 1.2 mi NNE 23.0 mph - N/A Rain Heavy Rain Showers
2:34 PM 77.0 °F - 73.4 °F 89% 29.47 in 1.2 mi NNE 23.0 mph 34.5 mph N/A Rain Heavy Rain Showers
2:42 PM 77.0 °F - 73.4 °F 89% 29.47 in 1.6 mi NNE 26.5 mph - N/A Rain Rain Showers
3:00 PM 77.0 °F - 75.2 °F 94% 29.44 in 2.2 mi NNE 21.9 mph - N/A Rain Rain Showers
3:19 PM 77.0 °F - 75.2 °F 94% 29.44 in 2.2 mi NNE 24.2 mph 35.7 mph N/A Rain Rain Showers
3:30 PM 77.0 °F - 73.4 °F 89% 29.44 in 2.2 mi NNE 23.0 mph - N/A Rain Rain Showers
3:40 PM 77.0 °F - 73.4 °F 89% 29.44 in 2.2 mi NNE 24.2 mph 35.7 mph N/A Rain Rain Showers
4:00 PM 77.0 °F - 73.4 °F 89% 29.44 in 1.2 mi NNE 27.6 mph - N/A Rain Heavy Rain Showers
4:09 PM 77.0 °F - 73.4 °F 89% 29.44 in 1.9 mi North 32.2 mph - N/A Rain Rain Showers
4:17 PM 77.0 °F - 73.4 °F 89% 29.44 in 1.9 mi North 32.2 mph 43.7 mph N/A Rain Rain Showers
4:30 PM 77.0 °F - 73.4 °F 89% 29.42 in 1.2 mi NNE 29.9 mph 47.2 mph N/A Rain Heavy Rain Showers
4:48 PM 75.2 °F - 73.4 °F 94% 29.44 in 0.6 mi North 38.0 mph - N/A Rain Heavy Rain Showers
5:00 PM 75.2 °F - 73.4 °F 94% 29.44 in 1.9 mi North 39.1 mph - N/A Rain Heavy Rain Showers
5:15 PM 77.0 °F - 73.4 °F 89% 29.44 in 1.9 mi North 40.3 mph 51.8 mph N/A Rain Heavy Rain Showers
5:30 PM 77.0 °F - 73.4 °F 89% 29.44 in 1.6 mi North 41.4 mph 55.2 mph N/A Rain Rain Showers
6:00 PM 75.2 °F - 71.6 °F 89% 29.44 in 1.2 mi North 42.6 mph 55.2 mph N/A Rain Heavy Rain Showers
6:21 PM 75.2 °F - 71.6 °F 89% 29.44 in 1.2 mi North 42.6 mph - N/A Rain Heavy Rain Showers
6:30 PM 75.2 °F - 71.6 °F 89% 29.44 in 1.9 mi North 41.4 mph 52.9 mph N/A Rain Rain Showers
6:42 PM 75.2 °F - 71.6 °F 89% 29.44 in 3.1 mi North 44.9 mph 58.7 mph N/A Rain Rain Showers
7:00 PM 75.2 °F - 71.6 °F 89% 29.47 in 3.1 mi North 41.4 mph 56.4 mph N/A Rain Rain Showers
7:30 PM 75.2 °F - 71.6 °F 89% 29.47 in 3.1 mi North 44.9 mph 56.4 mph N/A Rain Light Rain Showers
8:00 PM 75.2 °F - 71.6 °F 89% 29.47 in 2.5 mi North 46.0 mph 57.5 mph N/A Rain Rain Showers
8:30 PM 75.2 °F - 71.6 °F 89% 29.47 in 1.9 mi North 48.3 mph 61.0 mph N/A Rain Rain Showers
9:00 PM 75.2 °F - 71.6 °F 89% 29.47 in 1.9 mi North 48.3 mph 66.7 mph N/A Rain Rain Showers
9:30 PM 75.2 °F - 69.8 °F 83% 29.50 in 1.9 mi North 50.6 mph 65.6 mph N/A Rain Rain Showers
10:00 PM 73.4 °F - 69.8 °F 88% 29.50 in 2.5 mi North 50.6 mph 63.3 mph N/A Rain Light Rain Showers
10:23 PM 73.4 °F - 68.0 °F 83% 29.50 in 3.1 mi North 49.5 mph 63.3 mph N/A Rain Light Rain Showers
10:30 PM 73.4 °F - 68.0 °F 83% 29.50 in 3.1 mi North 49.5 mph 63.3 mph N/A Rain Light Rain Showers
11:00 PM 75.2 °F - 69.8 °F 83% 29.50 in 3.1 mi North 44.9 mph 59.8 mph N/A   Mostly Cloudy
11:30 PM 75.2 °F - 68.0 °F 78% 29.53 in 3.1 mi North 51.8 mph 64.4 mph N/A   Mostly Cloudy